FW0202 Weather Reports


Display with metric or nautical units.
time (UTC)temp
F
wind
direction
speed
MPH
gust
MPH
rain 1hr
in
rain 24hr
in
rain mn
in
humidity
%
barometer
mb
20260506230959 74 190 4.0 6.0 0.00 0.03 0.01 78 996.2
20260506230444 74 183 4.0 6.0 0.00 0.04 0.01 78 996.1
20260506225940 73 178 4.0 6.0 0.00 0.04 0.01 79 996.0
20260506225435 72 166 5.0 6.0 0.00 0.05 0.01 81 996.1
20260506224922 71 173 4.0 6.0 0.00 0.07 0.01 83 996.0
20260506224418 71 166 4.0 6.0 0.00 0.08 0.01 81 996.2
20260506224138 72 161 5.0 7.0 0.00 0.10 0.01 81 996.1
20260506223409 71 188 4.0 7.0 0.00 0.11 0.01 85 996.2
20260506222906 71 192 5.0 6.0 0.00 0.12 0.01 84 996.1
20260506222836 70 186 4.0 6.0 0.00 0.12 0.01 88 996.1
20260506221847 69 186 5.0 6.0 0.00 0.12 0.01 95 996.1
20260506221330 68 187 4.0 6.0 0.00 0.12 0.01 96 996.0
20260506220829 68 183 4.0 6.0 0.00 0.12 0.01 98 996.1
20260506220314 67 180 4.0 6.0 0.00 0.12 0.01 98 996.2
20260506215800 65 193 5.0 6.0 0.00 0.13 0.01 98 996.0
20260506215520 65 185 5.0 6.0 0.00 0.13 0.01 98 996.0
20260506214759 65 183 4.0 6.0 0.00 0.13 0.01 99 996.1
20260506214258 64 189 5.0 6.0 0.00 0.13 0.01 99 996.0
20260506213753 64 186 5.0 6.0 0.00 0.13 0.01 99 995.9
20260506213250 64 180 5.0 6.0 0.00 0.13 0.01 99 996.0
20260506213234 64 180 5.0 6.0 0.00 0.13 0.01 99 996.0
20260506212241 62 180 4.0 6.0 0.00 0.13 0.01 99 995.9
20260506211737 62 171 5.0 6.0 0.00 0.13 0.01 99 995.8
20260506211234 63 168 5.0 6.0 0.00 0.13 0.01 99 995.9
20260506210728 62 171 5.0 6.0 0.00 0.13 0.01 99 995.9
20260506210228 60 187 5.0 6.0 0.00 0.13 0.01 99 995.7
20260506205728 60 173 5.0 6.0 0.00 0.13 0.01 99 995.9
20260506205227 60 180 5.0 6.0 0.00 0.14 0.01 99 995.8
20260506204703 60 180 5.0 6.0 0.00 0.13 0.00 99 995.8
20260506204157 60 180 5.0 6.0 0.00 0.14 0.00 99 995.6
20260506203643 60 178 5.0 6.0 0.00 0.14 0.00 99 995.7
20260506203130 60 179 5.0 6.0 0.00 0.15 0.00 99 995.7
20260506202626 60 186 5.0 6.0 0.00 0.16 0.00 99 995.5
20260506202126 60 176 5.0 6.0 0.00 0.18 0.00 99 995.7
20260506201627 60 180 4.0 6.0 0.00 0.18 0.00 99 995.5
20260506201123 60 182 5.0 6.0 0.00 0.18 0.00 99 995.3
20260506200619 60 185 5.0 6.0 0.00 0.18 0.00 99 995.3
20260506200114 60 182 5.0 6.0 0.00 0.18 0.00 99 995.3
20260506195830 60 180 5.0 6.0 0.00 0.18 0.00 99 995.3
20260506195106 60 179 5.0 6.0 0.00 0.19 0.00 99 995.2
20260506194551 60 177 5.0 6.0 0.00 0.19 0.00 99 995.2
20260506194048 60 178 5.0 6.0 0.00 0.19 0.00 99 995.2
20260506193545 60 178 5.0 6.0 0.00 0.19 0.00 99 995.3
20260506193040 61 172 5.0 6.0 0.00 0.19 0.00 99 995.2
20260506192515 60 177 5.0 6.0 0.00 0.19 0.00 99 995.2
20260506192010 60 180 5.0 6.0 0.00 0.20 0.00 99 995.1
20260506191447 60 179 5.0 6.0 0.00 0.20 0.00 99 995.2
20260506191211 60 179 4.0 6.0 0.00 0.22 0.00 99 995.3
20260506190438 60 180 5.0 6.0 0.00 0.23 0.00 99 995.2
20260506190151 60 182 5.0 6.0 0.00 0.24 0.00 99 995.3
20260506185430 61 179 5.0 6.0 0.00 0.25 0.00 99 995.0
20260506184924 61 180 4.0 6.0 0.00 0.27 0.00 99 995.1
20260506184421 61 185 5.0 6.0 0.00 0.30 0.00 99 995.1
20260506183917 61 174 5.0 6.0 0.00 0.32 0.00 99 995.1
20260506183634 61 173 5.0 6.0 0.00 0.33 0.00 99 995.3
20260506182909 61 177 5.0 6.0 0.00 0.34 0.00 99 995.1
20260506182355 61 173 5.0 6.0 0.00 0.35 0.00 99 995.2
20260506181850 61 170 5.0 6.0 0.00 0.37 0.00 99 995.2
20260506181837 61 174 5.0 6.0 0.00 0.37 0.00 99 995.4
20260506180811 60 182 5.0 6.0 0.00 0.38 0.00 99 995.2
20260506180308 60 173 5.0 6.0 0.00 0.38 0.00 99 995.1
20260506175803 60 176 5.0 6.0 0.00 0.38 0.00 99 995.4
20260506175259 61 172 5.0 6.0 0.00 0.38 0.00 99 995.5
20260506174755 60 174 5.0 6.0 0.00 0.38 0.00 99 995.5
20260506174250 60 177 5.0 6.0 0.00 0.38 0.00 99 995.4
20260506173746 61 172 5.0 6.0 0.00 0.38 0.00 99 995.3
20260506173221 61 183 5.0 6.0 0.00 0.38 0.00 99 995.4
20260506172717 61 183 5.0 6.0 0.00 0.38 0.00 99 995.3
20260506172213 61 176 5.0 6.0 0.00 0.38 0.00 99 995.3
20260506171922 61 187 5.0 6.0 0.00 0.38 0.00 99 995.4
20260506171421 61 186 5.0 6.0 0.00 0.38 0.00 99 995.4
20260506170650 61 177 4.0 6.0 0.00 0.38 0.00 99 995.7
20260506170147 61 177 5.0 6.0 0.00 0.38 0.00 99 995.7
20260506165622 61 185 5.0 6.0 0.00 0.38 0.00 99 995.7
20260506165117 61 176 4.0 6.0 0.00 0.38 0.00 99 995.8
20260506164831 61 185 5.0 6.0 0.00 0.38 0.00 99 995.9
20260506164109 61 183 5.0 6.0 0.00 0.38 0.00 99 995.9
20260506163551 61 183 5.0 6.0 0.00 0.38 0.00 99 995.9
20260506163050 61 178 4.0 6.0 0.00 0.38 0.00 99 996.1
20260506162536 61 176 5.0 6.0 0.00 0.38 0.00 99 996.0
20260506162233 61 180 5.0 6.0 0.00 0.38 0.00 99 996.0
20260506161512 61 181 5.0 6.0 0.00 0.38 0.00 99 996.0
20260506160954 61 181 5.0 6.0 0.00 0.38 0.00 99 996.0
20260506160449 61 180 5.0 6.0 0.00 0.38 0.00 99 996.2
20260506155924 61 180 5.0 5.0 0.00 0.38 0.00 99 996.3
20260506155629 61 170 4.0 5.0 0.00 0.38 0.00 99 996.2
20260506154907 61 173 5.0 5.0 0.00 0.38 0.00 99 996.4
20260506154619 61 175 4.0 6.0 0.00 0.38 0.00 99 996.5
20260506153859 61 175 5.0 6.0 0.00 0.38 0.00 99 996.4
20260506153354 61 172 5.0 6.0 0.00 0.38 0.00 99 996.4
20260506152850 61 174 5.0 6.0 0.00 0.38 0.00 99 996.4
20260506152348 61 170 5.0 6.0 0.00 0.38 0.00 99 996.5
20260506151849 61 180 5.0 6.0 0.00 0.38 0.00 99 996.6
20260506151338 61 179 5.0 6.0 0.00 0.38 0.00 99 996.6
20260506150812 61 178 4.0 6.0 0.00 0.38 0.00 99 996.7
20260506150531 61 175 5.0 6.0 0.00 0.38 0.00 99 996.5
20260506145755 61 177 5.0 6.0 0.00 0.38 0.00 99 996.6
20260506145247 61 173 5.0 6.0 0.00 0.38 0.00 99 996.6
20260506144716 61 180 5.0 6.0 0.00 0.38 0.00 99 996.6
20260506144211 61 179 4.0 6.0 0.00 0.38 0.00 99 996.7
20260506143707 61 190 5.0 6.0 0.00 0.38 0.00 99 996.5
20260506143204 61 173 5.0 6.0 0.00 0.38 0.00 99 996.7
20260506142659 61 174 4.0 6.0 0.00 0.38 0.00 99 996.8
20260506142155 61 175 5.0 6.0 0.00 0.38 0.00 99 996.9
20260506141649 61 172 5.0 6.0 0.00 0.38 0.00 99 996.9
20260506141148 61 172 5.0 6.0 0.00 0.38 0.00 99 996.9
20260506140649 61 173 5.0 6.0 0.00 0.38 0.00 99 996.8
20260506140149 61 177 5.0 6.0 0.00 0.38 0.00 99 997.0
20260506135838 61 182 5.0 6.0 0.00 0.38 0.38 99 997.0
20260506135110 61 185 4.0 6.0 0.00 0.38 0.38 99 997.1
20260506134555 62 180 5.0 6.0 0.00 0.38 0.38 99 996.9
20260506134052 62 191 5.0 6.0 0.00 0.38 0.38 99 997.2
20260506133547 62 176 5.0 5.0 0.00 0.38 0.38 99 997.1
20260506133302 62 177 5.0 5.0 0.00 0.38 0.38 99 997.1
20260506132518 61 174 5.0 6.0 0.00 0.38 0.38 99 997.4
20260506132013 62 179 5.0 6.0 0.00 0.38 0.38 99 997.4
20260506131510 62 171 5.0 6.0 0.00 0.38 0.38 99 997.3
20260506131005 62 179 4.0 5.0 0.00 0.38 0.38 99 997.4
20260506130451 62 175 5.0 6.0 0.00 0.38 0.38 99 997.5
20260506125947 62 172 5.0 6.0 0.00 0.38 0.38 99 997.4
20260506125705 62 166 5.0 6.0 0.00 0.38 0.38 99 997.6
20260506124929 62 166 5.0 6.0 0.00 0.38 0.38 98 997.6
20260506124415 62 186 5.0 6.0 0.00 0.38 0.38 98 997.5
20260506123913 62 174 5.0 6.0 0.00 0.38 0.38 98 997.4
20260506123414 62 174 5.0 6.0 0.00 0.38 0.38 98 997.2
20260506122911 62 183 5.0 6.0 0.00 0.38 0.38 98 997.5
20260506122617 62 176 5.0 6.0 0.00 0.38 0.38 98 997.4
20260506121842 62 180 5.0 6.0 0.00 0.38 0.38 98 997.4
20260506121342 62 179 4.0 6.0 0.00 0.38 0.38 98 997.3
20260506121035 62 172 4.0 6.0 0.00 0.38 0.38 98 997.3
20260506120310 62 178 5.0 6.0 0.00 0.38 0.38 98 997.7
20260506115806 62 176 5.0 6.0 0.00 0.38 0.38 98 997.7
20260506115252 62 175 4.0 6.0 0.00 0.38 0.38 98 997.6
20260506115011 62 178 5.0 6.0 0.00 0.38 0.38 98 997.9
20260506114258 62 181 4.0 5.0 0.00 0.38 0.38 98 997.7
20260506113955 62 177 5.0 6.0 0.00 0.38 0.38 98 998.0
20260506112732 62 177 5.0 6.0 0.00 0.38 0.38 98 998.2
20260506112226 62 182 5.0 6.0 0.00 0.38 0.38 98 998.1
20260506111722 62 177 4.0 6.0 0.00 0.38 0.38 98 998.1
20260506111219 62 183 5.0 6.0 0.00 0.38 0.38 98 998.1
20260506110715 62 170 5.0 6.0 0.00 0.38 0.38 98 998.2
20260506110434 62 178 5.0 6.0 0.00 0.38 0.38 98 998.2
20260506105707 62 175 5.0 6.0 0.00 0.38 0.38 98 998.0
20260506105203 62 192 6.0 6.0 0.00 0.38 0.38 98 998.1
20260506104649 62 188 5.0 6.0 0.00 0.38 0.38 98 998.1
20260506104144 63 178 4.0 6.0 0.00 0.38 0.38 98 998.1
20260506103639 63 178 5.0 5.0 0.00 0.38 0.38 98 998.0
20260506103140 63 179 4.0 5.0 0.00 0.38 0.38 98 998.3
20260506102640 63 177 5.0 6.0 0.00 0.38 0.38 98 998.4
20260506102140 63 177 5.0 6.0 0.00 0.38 0.38 98 998.2
20260506101624 63 173 5.0 6.0 0.00 0.38 0.38 98 998.6
20260506101119 63 175 5.0 6.0 0.00 0.38 0.38 98 998.6
20260506100615 63 174 5.0 6.0 0.00 0.38 0.38 98 998.3
20260506100123 63 177 5.0 6.0 0.00 0.38 0.38 98 998.3
20260506095610 63 177 5.0 6.0 0.00 0.38 0.38 98 998.2
20260506095104 63 173 5.0 6.0 0.00 0.38 0.38 98 998.3
20260506094559 63 172 5.0 6.0 0.00 0.38 0.38 98 998.2
20260506094055 63 179 5.0 6.0 0.00 0.38 0.38 98 998.3
20260506093550 63 172 4.0 6.0 0.00 0.38 0.38 98 998.3
20260506093046 63 173 6.0 6.0 0.00 0.38 0.38 98 998.1
20260506092542 63 174 4.0 6.0 0.00 0.38 0.38 98 998.0
20260506092038 63 176 4.0 6.0 0.00 0.38 0.38 98 998.1
20260506091514 63 173 5.0 6.0 0.00 0.38 0.38 98 997.8
20260506091010 63 177 5.0 6.0 0.00 0.38 0.38 98 997.9
20260506090508 63 180 5.0 6.0 0.00 0.38 0.38 98 997.5
20260506090231 63 178 5.0 6.0 0.00 0.38 0.38 98 997.7
20260506085520 63 174 5.0 6.0 0.00 0.38 0.38 98 997.7
20260506084944 63 174 5.0 6.0 0.00 0.38 0.38 98 997.7
20260506084437 63 175 5.0 6.0 0.00 0.38 0.38 98 997.5
20260506083935 63 175 5.0 6.0 0.00 0.38 0.38 98 997.6
20260506083431 63 184 5.0 5.0 0.00 0.38 0.38 98 997.7
20260506082927 63 176 5.0 6.0 0.00 0.38 0.38 98 997.7
20260506082406 63 179 5.0 6.0 0.00 0.38 0.38 98 997.4
20260506081906 63 174 4.0 6.0 0.00 0.38 0.38 98 997.5
20260506081354 63 179 5.0 6.0 0.00 0.38 0.38 98 997.4
20260506080836 63 170 5.0 6.0 0.00 0.38 0.38 98 997.5
20260506080337 63 179 5.0 6.0 0.00 0.38 0.38 98 997.4
20260506073230 63 178 5.0 6.0 0.00 0.38 0.38 98 997.2
20260506072727 63 175 4.0 6.0 0.00 0.38 0.38 98 997.2
20260506072212 63 176 5.0 6.0 0.00 0.38 0.38 98 997.3
20260506071658 63 178 5.0 6.0 0.00 0.38 0.38 98 997.4
20260506071153 63 180 5.0 6.0 0.00 0.38 0.38 98 997.3
20260506070652 63 175 5.0 6.0 0.00 0.38 0.38 98 997.3
20260506070125 63 173 4.0 6.0 0.00 0.38 0.38 98 997.2
20260506062305 64 177 5.0 6.0 0.00 0.38 0.38 98 997.2
20260506061527 64 178 5.0 6.0 0.00 0.38 0.38 98 997.4
20260506061013 64 176 5.0 6.0 0.00 0.38 0.38 98 997.4
20260506060509 64 173 5.0 6.0 0.00 0.38 0.38 98 997.5
20260506051350 64 182 5.0 6.0 0.00 0.38 0.38 98 997.1
20260506050831 64 181 4.0 6.0 0.00 0.38 0.38 98 997.2
20260506050329 64 183 5.0 6.0 0.00 0.38 0.38 98 997.2
20260506044745 64 181 4.0 6.0 0.00 0.38 0.38 98 997.2
20260506044503 64 168 5.0 6.0 0.00 0.38 0.38 98 997.3
20260506043729 65 181 4.0 6.0 0.00 0.38 0.38 98 997.3
20260506043213 64 184 5.0 6.0 0.00 0.38 0.38 98 997.3
20260506042709 64 174 5.0 6.0 0.00 0.38 0.38 98 997.5
20260506042206 64 172 5.0 6.0 0.00 0.38 0.38 98 997.3
20260506041651 64 169 5.0 6.0 0.00 0.38 0.38 98 997.4
20260506041147 64 174 5.0 6.0 0.00 0.38 0.38 98 997.5
20260506040642 64 175 6.0 6.0 0.00 0.38 0.38 98 997.4
20260506040138 64 177 5.0 6.0 0.00 0.38 0.38 98 997.4
20260506035614 64 180 4.0 6.0 0.00 0.38 0.38 98 997.6
20260506035110 64 174 5.0 6.0 0.00 0.38 0.38 98 997.3
20260506034606 63 179 5.0 6.0 0.00 0.38 0.38 98 997.6
20260506034102 64 174 5.0 6.0 0.00 0.38 0.38 98 997.5
20260506033557 64 170 5.0 6.0 0.00 0.38 0.38 98 997.6
20260506033315 63 177 4.0 6.0 0.00 0.38 0.38 98 997.6
20260506032549 64 177 5.0 6.0 0.00 0.38 0.38 98 997.7
20260506032046 64 167 5.0 6.0 0.00 0.38 0.38 98 997.9
20260506031528 64 174 5.0 6.0 0.00 0.37 0.37 98 997.7
20260506031238 64 187 5.0 6.0 0.00 0.37 0.37 98 997.8
20260506030731 64 169 5.0 6.0 0.00 0.37 0.37 98 998.0
20260506025959 64 181 5.0 6.0 0.00 0.37 0.37 98 997.8
20260506025454 64 176 5.0 6.0 0.00 0.37 0.37 98 997.8
20260506024940 64 176 5.0 6.0 0.00 0.37 0.37 98 997.9
20260506024435 64 185 5.0 6.0 0.00 0.37 0.37 98 997.8
20260506024411 64 189 4.0 6.0 0.00 0.37 0.37 98 998.0
20260506023428 64 178 5.0 6.0 0.00 0.37 0.37 98 997.9
20260506022913 64 180 4.0 6.0 0.00 0.37 0.37 98 998.1
20260506022408 64 178 5.0 6.0 0.00 0.37 0.37 98 998.1
20260506022105 64 183 5.0 6.0 0.00 0.37 0.37 98 998.2
20260506021340 64 175 5.0 6.0 0.00 0.37 0.37 98 998.2
20260506020837 64 169 5.0 6.0 0.00 0.37 0.37 98 998.1
20260506020323 64 172 5.0 6.0 0.00 0.37 0.37 98 998.3
20260506015819 64 183 5.0 6.0 0.00 0.37 0.37 98 998.4
20260506015315 64 177 5.0 6.0 0.00 0.37 0.37 98 998.4
20260506014812 64 175 5.0 6.0 0.00 0.37 0.37 98 998.4
20260506014256 64 186 5.0 6.0 0.00 0.37 0.37 98 998.4
20260506013753 64 168 5.0 6.0 0.00 0.37 0.37 98 998.6
20260506013228 64 178 4.0 6.0 0.00 0.37 0.37 98 998.5
20260506012726 64 169 5.0 6.0 0.00 0.37 0.37 98 998.8
20260506012450 64 171 5.0 6.0 0.00 0.37 0.37 98 998.5
20260506011725 64 178 5.0 6.0 0.00 0.37 0.37 98 998.9
20260506011221 64 183 4.0 6.0 0.00 0.37 0.37 98 998.7
20260506010939 64 180 5.0 6.0 0.00 0.37 0.37 98 998.8
20260506010213 64 172 5.0 6.0 0.00 0.37 0.37 98 998.7
20260506005710 64 181 5.0 6.0 0.00 0.37 0.37 98 998.9
20260506005205 63 182 5.0 6.0 0.00 0.37 0.37 98 998.9
20260506004700 63 174 5.0 6.0 0.00 0.37 0.37 98 999.0
20260506004647 63 174 5.0 6.0 0.00 0.37 0.37 98 999.1
20260506004140 63 169 5.0 6.0 0.00 0.37 0.37 98 999.1
20260506003153 63 167 5.0 6.0 0.01 0.37 0.37 98 999.1
20260506002644 63 179 5.0 6.0 0.01 0.37 0.37 98 999.2
20260506002123 63 168 5.0 6.0 0.02 0.37 0.37 98 999.1
20260506001623 63 167 6.0 6.0 0.02 0.37 0.37 98 999.2
20260506001112 63 180 4.0 6.0 0.02 0.37 0.37 98 999.3
20260506000608 63 177 5.0 6.0 0.02 0.37 0.37 98 999.1
20260506000330 63 160 6.0 6.0 0.03 0.37 0.37 98 999.2
20260505235553 63 166 6.0 6.0 0.04 0.37 0.37 98 999.2
20260505235053 63 163 5.0 7.0 0.06 0.37 0.37 98 999.4
20260505234531 63 163 6.0 7.0 0.07 0.37 0.37 98 999.4
20260505234022 63 164 5.0 8.0 0.08 0.37 0.37 98 999.3
20260505233525 63 180 4.0 8.0 0.09 0.37 0.37 98 999.2
20260505233009 63 171 5.0 8.0 0.10 0.37 0.37 98 999.2
20260505232454 63 169 5.0 7.0 0.10 0.36 0.36 98 999.1
20260505231952 63 166 6.0 7.0 0.09 0.36 0.36 98 999.1
20260505231452 63 165 5.0 7.0 0.09 0.35 0.35 98 999.0